Location: Seven Kings
(51.5667°N, 0.1000°E)
Time: 03:46:00
(UTC+00:00)

COSMO-SKYMED 1 - Pass Details

Date: 29 October 2020
Orbit: 621 x 623 km, 97.9° (Epoch: 24 November)

Event Time Altitude Azimuth Distance (km) Brightness Sun altitude
Rises 18:36:07 0° 11° (NNE) 2,917 5.9 -18.9°
Reaches altitude 10° 18:38:20 10° 9° (N) 2,006 5.1 -19.3°
Maximum altitude 18:42:38 63° 288° (WNW) 700 3.0 -20.0°
Drops below altitude 10° 18:46:55 10° 208° (SSW) 1,989 5.4 -20.6°
Sets 18:49:06 0° 205° (SSW) 2,891 6.3 -21.0°
